User: anonymous   Login
Location: Muenchen
(48.1800°N, 11.5800°E)
Time: 07:06:24
(UTC+02:00)
Language:

Sich 1 Rocket - Orbit

View from above orbital plane
View from above orbital plane
View from above satellite
View from above satellite

Ground track
Ground track

The orbit data is extracted from the following two-line orbital elements,

1 23659U 95046C   17141.96951177 +.00000106 +00000-0 +11461-4 0  9992
2 23659 082.5287 329.7772 0024705 322.6496 189.0134 14.78240810170353
Epoch (UTC): 21 May 2017 23:16:05
Eccentricity: 0.0024705
inclination: 82.5287°
perigee height: 617 km
apogee height: 652 km
right ascension of ascending node: 329.7772°
argument of perigee: 322.6496°
revolutions per day: 14.78240810
mean anomaly at epoch: 189.0134°
orbit number at epoch: 17035

The dashed part of the orbit path shows where the satellite is in the earth's shadow,  

DLR